Delta Virtual Airport Information Service

Houston George Bush Intercontinental Airport

ICAO: KIAH Country: United States
Latitude: 29.9844 Longitude: -95.3414
Latest Arrival : GTI3530 (4) (KSCK-KIAH) Latest Departure : NKS217 (1) (KIAH-KLAX)


WX CaptureLIVE
Data provided by noaa.gov | Fetched at 21:35:37

METAR : KIAH 240153Z 34009KT 10SM BKN012 17/14 A3007 RMK AO2 SLP183 T01720139

TAF : KIAH 240214Z 2402/2506 34013KT P6SM BKN015 FM241300 35008KT P6SM SCT015 BKN025 FM241500 34009KT P6SM SCT030 BKN050 FM241700 34007KT P6SM FEW050 BKN250 FM250000 34005KT P6SM SCT250


Runway Data for KIAH
Data provided by openaviationdata.com

Runway ID Mag Var Hdg Length Elevation Surface ILS Freq ILS Id ILS Slope
08L 5 84° 8992 ft 97 ft Concrete 111.55 IBZU 3
08R 5 84° 9394 ft 97 ft Concrete 109.7 IIAH 3
9 5 84° 9991 ft 97 ft Asphalt 110.9 IUYO 3
15L 5 147° 12022 ft 97 ft Concrete 111.9 IHSQ 2
15R 5 147° 10016 ft 97 ft Concrete 111.15 ILKM 3
26L 5 264° 9394 ft 97 ft Concrete 109.7 IJYV 3
26R 5 264° 8992 ft 97 ft Concrete 111.55 IOND 3
27 5 264° 9991 ft 97 ft Asphalt 110.9 IGHI 3
33L 5 327° 10016 ft 97 ft Concrete -- -- --
33R 5 327° 12022 ft 97 ft Concrete 111.9 ICDG 3

Houston George Bush Intercontinental Airport, United States
Use only for reference purposes



Not for navigational purposes.